Flag for Norway Weather past 2 weeks in Jan Mayen, Jan Mayen, Norway

Now
42 °F

Quite cool.


Feels Like: 36 °F
Forecast: 41 / 44 °F
Wind: 8 mph from North

Location: Jan Mayen

Current Time: Aug 1, 2014 at 12:05:28 PM

Latest Report: Aug 1, 2014 at 11:00 AM


Visibility: N/A

Pressure: 29.89 "Hg

Humidity: 79%

Dew point: 35 °F

Location of Jan MayenLocation

Historic Weather in Jan Mayen — Graph

°F

Jan Mayen temperature yesterday

Maximum temperature yesterday: 44 °F (at 3:00 PM)
Minimum temperature yesterday: 40 °F (at 11:00 PM)
Average temperature yesterday: 42 °F

Past Weeks' High & Low Weather Summary

 TemperatureHumidityPressure
High52 °F (Jul 26, 10:00 AM)99% (Jul 23, 11:00 PM)30.12 "Hg (Jul 23, 11:00 PM)
Low39 °F (Aug 1, 5:00 AM)77% (Jul 31, 6:00 PM)29.80 "Hg (Jul 31, 8:00 AM)
Average45 °F95%29.97 "Hg
* Reported Jul 17 10:00 AM — Aug 1 10:00 AM, Jan Mayen, Weather by CustomWeather, © 2014

Note: Actual official high and low records may vary slightly from our data, if they occured in-between our weather recording intervals... More about our weather records

Advertising

Jan Mayen weather history for previous 24 hours

 ConditionsComfort  
Time TempWeatherWind HumidityBarometerVisibility
10:00 AM
Aug 1
40 °FQuite cool.8 mph83%29.88 "HgN/A
9:00 AM40 °FChilly.8 mph80%29.88 "HgN/A
8:00 AM40 °FPartly sunny.12 mph83%29.86 "Hg43 mi
7:00 AM39 °FChilly.12 mph85%29.85 "HgN/A
6:00 AM39 °FChilly.12 mph84%29.85 "HgN/A
5:00 AM39 °FChilly.10 mph83%29.85 "HgN/A
4:00 AM40 °FChilly.13 mph79%29.85 "HgN/A
3:00 AM40 °FChilly.13 mph80%29.84 "HgN/A
2:00 AM40 °FPartly sunny.12 mph82%29.85 "Hg2 mi
1:00 AM40 °FChilly.9 mph81%29.84 "HgN/A
12:00 AM40 °FQuite cool.12 mph82%29.84 "HgN/A
11:00 PM
Jul 31
40 °FOvercast.13 mph81%29.83 "Hg47 mi
10:00 PM40 °FQuite cool.10 mph83%29.84 "HgN/A
9:00 PM41 °FQuite cool.12 mph84%29.84 "HgN/A
8:00 PM41 °FPartly sunny.10 mph82%29.84 "Hg47 mi
7:00 PM42 °FQuite cool.13 mph78%29.82 "HgN/A
6:00 PM43 °FQuite cool.14 mph77%29.82 "HgN/A
5:00 PM43 °FQuite cool.14 mph79%29.81 "HgN/A
4:00 PM44 °FQuite cool.12 mph78%29.81 "HgN/A
3:00 PM44 °FQuite cool.10 mph83%29.81 "HgN/A
2:00 PM44 °FDrizzle. Partly sunny.12 mph86%29.80 "Hg4 mi
1:00 PM43 °FQuite cool.13 mph89%29.80 "HgN/A
12:00 PM42 °FQuite cool.12 mph91%29.80 "HgN/A
Weather by CustomWeather, © 2014

See weather overviewHow to use our weather pages